OneWeb SL0395

operational
NORAD ID: 50475 Int'l Des: 2021-132 Owner: ONEWEBN Country: UK Constellation: oneweb
LEOCIRCULARPOLARONEWEB_TYPE

OneWeb SL0395について

説明を読み込み中...

リアルタイム位置

3D地球を読み込み中...

次回通過

高度履歴

Altitude vs Time

uPlot chart will show altitude changes over time

軌道要素

1 50475U 21132G 25296.64705741 .00000019 00000-0 17946-4 0 9999
2 50475 87.8828 68.1842 0001805 90.3921 269.7413 13.11419249184719
Epoch: Oct 23, 2025 • Age: 29 hours

現在のステータス

高度 1233.6 km
速度 7.24 km/s
衛星直下点 -39.21°S, 85.45°W
打ち上げ日 Dec 27, 2021
運用期間 3.8 years
タイプ internet

技術仕様

分類 Payload
質量 148.00 kg
乾燥質量 140.00 kg
総質量 148.00 kg
長さ 1.30 m
直径 1.00 m
スパン 5.00 m
形状 Trapezoid+2 pan
製造者 ONEWUS
バスタイプ ARROW
フェーズステータス In Orbit
所有者/国 ONEWEBN/UK

大規模コンステレーション

Loading constellations...